Volver al catálogo

GEESAT 1-08

ActivoCienciaLEO
NORAD 52792·PAYLOAD·🇨🇳 China

Lanzado Jun 2, 2022 desde Xichang Satellite Launch Center

Loading…

Próximos Pases (próximas 24 horas)

TLE

ActualizadoSource: Space-Track

Época: Sep 14, 2026, 13:15 UTC

1 52792U 22058H   26257.55254871  .00001115  00000-0  16844-3 0  9995
2 52792  49.9934 148.7638 0019533 273.2031  86.6672 14.81595970233182

Sigue GEESAT 1-08 en tiempo real con AllMySat

Download on the App Store